Tracking 17856 objects as of 28-September-2016
HD Live streaming from Space Station
objects crossing your sky now

SL-12 R/B(2)

Track SL-12 R/B(2) now!


NORAD ID: 24919
Int'l Code: 1997-046D
Perigee: 8,429.6 km
Apogee: 35,959.9 km
Inclination: 13.9 °
Period: 800.8 minutes
Semi major axis: 28565 km
RCS: 29.9426 m2 (large)
Launch date: August 28, 1997
Source: Commonwealth of Independent States (former USSR) (CIS)
Launch site: TYURATAM MISSILE AND SPACE COMPLEX (TTMTR)

Note: This is a ROCKET BODY
Your satellite tracking list
Your tracking list is empty





NASA's NSSDC Master Catalog

Two Line Element Set (TLE):
1 24919U 97046D   16270.70663772  .00000000  00000-0  10000-3 0  9999
2 24919  13.8966  81.2307 4818774 118.5786 298.1028  1.79818570125358
Source of the keplerian elements: AFSPC

N2YO: 487